Clemson, SC

7:39 AM EDT on March 29, 2017 (GMT -0400)
Oconee County Regional

Weather History for KCEU - October, 2012

Change the Weather History Date:

Sunday, October 14, 2012

  Actual Average Record
Temperature  
Mean Temperature 64 °F -  
Max Temperature 71 °F 75 °F 89 °F (1940)
Min Temperature 57 °F 49 °F 30 °F (1988)
Degree Days  
Heating Degree Days 1    
Growing Degree Days 14 (Base 50)    
Moisture  
Dew Point 54 °F    
Average Humidity 70    
Maximum Humidity 87    
Minimum Humidity 60    
Precipitation  
Precipitation 0.00 in - - ()
Sea Level Pressure  
Sea Level Pressure 30.20 in    
Wind  
Wind Speed 1 mph (North)    
Max Wind Speed 7 mph    
Max Gust Speed -    
Visibility 10 miles    
Events      
Averages and records for this station are not official NWS values.
T = Trace of Precipitation, MM = Missing Value Source: NWS Daily Summary

Daily Weather History Graph

Daily Weather History Graph

Search for Another Location

Airport or City:

Trip Planner

Search our weather history database for the weather conditions in past years. The results will help you decide how hot, cold, wet, or windy it might be!

Date:

Astronomy

Oct. 14, 2012 Rise Set
Actual Time 7:36 AM EDT 6:57 PM EDT
Civil Twilight 7:11 AM EDT 7:22 PM EDT
Nautical Twilight 6:42 AM EDT 7:52 PM EDT
Astronomical Twilight 6:12 AM EDT 8:21 PM EDT
Moon 6:35 AM EDT (10/14) 6:17 PM EDT (10/14)
Length of Visible Light 12h 11m
Length of Day
11h 20m
Waning Crescent, 1% of the Moon is Illuminated
Oct 14
Waning Crescent
Oct 15
New
Oct 21
First Quarter
Oct 29
Full
Nov 6
Last Quarter

Hourly Weather History & Observations

Time (EDT) Temp. Dew Point Humidity Pressure Visibility Wind Dir Wind Speed Gust Speed Precip Events Conditions
1:54 AM 57.9 °F 46.9 °F 67% 30.31 in 10.0 mi Calm Calm - N/A   Overcast
2:54 AM 59.0 °F 48.0 °F 67% 30.30 in 10.0 mi Calm Calm - N/A   Overcast
3:54 AM 60.1 °F 48.0 °F 64% 30.28 in 10.0 mi NE 3.5 mph - N/A   Overcast
4:54 AM 59.0 °F 51.1 °F 75% 30.26 in 10.0 mi Calm Calm - N/A   Overcast
5:54 AM 59.0 °F 48.9 °F 69% 30.26 in 10.0 mi Calm Calm - N/A   Overcast
6:54 AM 60.1 °F 50.0 °F 69% 30.26 in 10.0 mi Calm Calm - N/A   Overcast
7:54 AM 60.1 °F 50.0 °F 69% 30.26 in 10.0 mi Calm Calm - N/A   Overcast
8:27 AM 60.8 °F 51.8 °F 72% 30.28 in 10.0 mi Calm Calm - N/A   Overcast
8:42 AM 60.8 °F 51.8 °F 72% 30.28 in 10.0 mi Calm Calm - N/A   Overcast
8:54 AM 61.0 °F 52.0 °F 72% 30.26 in 10.0 mi Calm Calm - N/A   Overcast
9:54 AM 63.0 °F 52.0 °F 67% 30.26 in 10.0 mi Calm Calm - N/A   Overcast
10:54 AM 64.0 °F 53.1 °F 67% 30.25 in 10.0 mi NE 3.5 mph - N/A   Overcast
11:54 AM 66.0 °F 52.0 °F 60% 30.26 in 10.0 mi ENE 3.5 mph - N/A   Overcast
12:54 PM 64.9 °F 53.1 °F 65% 30.25 in 10.0 mi Calm Calm - 0.00 in   Overcast
1:15 PM 66.2 °F 53.6 °F 64% 30.25 in 10.0 mi Calm Calm - 0.00 in   Overcast
1:54 PM 68.0 °F 55.0 °F 63% 30.21 in 10.0 mi Calm Calm - 0.00 in   Overcast
2:25 PM 69.8 °F 55.4 °F 60% 30.20 in 10.0 mi Calm Calm - N/A   Overcast
2:54 PM 70.0 °F 55.9 °F 61% 30.17 in 10.0 mi Calm Calm - N/A   Mostly Cloudy
3:54 PM 70.0 °F 57.0 °F 63% 30.15 in 10.0 mi Variable 4.6 mph - N/A   Scattered Clouds
4:54 PM 71.1 °F 57.9 °F 63% 30.12 in 10.0 mi West 6.9 mph - N/A   Scattered Clouds
5:54 PM 71.1 °F 59.0 °F 66% 30.11 in 10.0 mi Calm Calm - N/A   Partly Cloudy
6:54 PM 66.9 °F 59.0 °F 76% 30.09 in 10.0 mi Calm Calm - N/A   Clear
7:54 PM 66.9 °F 59.0 °F 76% 30.07 in 10.0 mi Calm Calm - N/A   Clear
8:54 PM 64.0 °F 60.1 °F 87% 30.06 in 10.0 mi Calm Calm - N/A   Clear
9:54 PM 63.0 °F 59.0 °F 87% 30.06 in 9.0 mi North 4.6 mph - N/A   Scattered Clouds
10:54 PM 64.9 °F 59.0 °F 81% 30.06 in 10.0 mi NNW 3.5 mph - N/A   Overcast
11:54 PM 66.0 °F 59.0 °F 78% 30.04 in 10.0 mi Calm Calm - N/A   Scattered Clouds